| time (UTC) | temp F | wind direction | speed MPH | gust MPH | rain 1hr in | rain 24hr in | rain mn in | humidity % | barometer mb |
| 20260906205013 | 60 | 43 | 0.0 | 0.0 | 0.00 | 0.01 | 0.01 | 74 | 1023.6 |
| 20260906204013 | 60 | 43 | 0.0 | 0.0 | 0.00 | 0.01 | 0.01 | 72 | 1023.5 |
| 20260906203013 | 61 | 43 | 0.0 | 0.0 | 0.00 | 0.01 | 0.01 | 71 | 1023.7 |
| 20260906202013 | 62 | 43 | 0.0 | 0.0 | 0.00 | 0.01 | 0.01 | 70 | 1023.7 |
| 20260906201013 | 62 | 43 | 0.0 | 0.0 | 0.00 | 0.01 | 0.01 | 68 | 1023.8 |
| 20260906200012 | 63 | 43 | 0.0 | 0.0 | 0.00 | 0.01 | 0.01 | 68 | 1023.8 |
| 20260906195012 | 63 | 43 | 0.0 | 0.0 | 0.00 | 0.01 | 0.01 | 67 | 1023.8 |
| 20260906194012 | 64 | 43 | 0.0 | 0.0 | 0.00 | 0.01 | 0.01 | 67 | 1023.8 |
| 20260906193012 | 64 | 43 | 0.0 | 0.0 | 0.00 | 0.01 | 0.01 | 66 | 1023.8 |
| 20260906192013 | 65 | 43 | 0.0 | 1.0 | 0.00 | 0.01 | 0.01 | 65 | 1023.8 |
| 20260906191013 | 65 | 43 | 1.0 | 2.0 | 0.00 | 0.01 | 0.01 | 64 | 1023.8 |
| 20260906190013 | 65 | 43 | 0.0 | 1.0 | 0.00 | 0.01 | 0.01 | 64 | 1023.7 |
| 20260906185012 | 66 | 43 | 1.0 | 2.0 | 0.00 | 0.01 | 0.01 | 64 | 1023.7 |
| 20260906184012 | 66 | 43 | 1.0 | 2.0 | 0.00 | 0.01 | 0.01 | 63 | 1023.5 |
| 20260906183012 | 67 | 43 | 1.0 | 4.0 | 0.00 | 0.01 | 0.01 | 62 | 1023.4 |
| 20260906182012 | 67 | 43 | 1.0 | 4.0 | 0.00 | 0.01 | 0.01 | 62 | 1023.4 |
| 20260906181012 | 68 | 43 | 0.0 | 4.0 | 0.00 | 0.01 | 0.01 | 60 | 1023.5 |
| 20260906180012 | 69 | 43 | 1.0 | 1.0 | 0.00 | 0.01 | 0.01 | 59 | 1023.3 |
| 20260906175013 | 69 | 43 | 1.0 | 4.0 | 0.00 | 0.01 | 0.01 | 58 | 1023.5 |
| 20260906174013 | 70 | 33 | 1.0 | 4.0 | 0.00 | 0.01 | 0.01 | 56 | 1023.5 |
| 20260906173013 | 71 | 52 | 1.0 | 5.0 | 0.00 | 0.01 | 0.01 | 55 | 1023.4 |
| 20260906172013 | 72 | 36 | 1.0 | 3.0 | 0.00 | 0.01 | 0.01 | 53 | 1023.5 |
| 20260906171013 | 73 | 70 | 2.0 | 6.0 | 0.00 | 0.01 | 0.01 | 52 | 1023.4 |
| 20260906170013 | 75 | 30 | 1.0 | 4.0 | 0.00 | 0.01 | 0.01 | 48 | 1023.3 |
| 20260906165013 | 75 | 50 | 0.0 | 3.0 | 0.00 | 0.01 | 0.01 | 45 | 1023.5 |
| 20260906164013 | 75 | 45 | 1.0 | 3.0 | 0.00 | 0.01 | 0.01 | 45 | 1023.5 |
| 20260906163012 | 75 | 2 | 1.0 | 2.0 | 0.00 | 0.01 | 0.01 | 45 | 1023.4 |
| 20260906162013 | 75 | 64 | 2.0 | 8.0 | 0.00 | 0.01 | 0.01 | 45 | 1023.5 |
| 20260906161013 | 76 | 62 | 2.0 | 5.0 | 0.00 | 0.01 | 0.01 | 44 | 1023.4 |
| 20260906160013 | 76 | 39 | 2.0 | 6.0 | 0.00 | 0.01 | 0.01 | 43 | 1023.5 |
| 20260906155013 | 77 | 54 | 2.0 | 5.0 | 0.00 | 0.01 | 0.01 | 43 | 1023.5 |
| 20260906154013 | 77 | 43 | 2.0 | 5.0 | 0.00 | 0.01 | 0.01 | 44 | 1023.5 |
| 20260906153013 | 77 | 29 | 2.0 | 6.0 | 0.00 | 0.01 | 0.01 | 44 | 1023.5 |
| 20260906152012 | 77 | 37 | 1.0 | 6.0 | 0.00 | 0.01 | 0.01 | 43 | 1023.6 |
| 20260906151012 | 77 | 37 | 2.0 | 5.0 | 0.00 | 0.01 | 0.01 | 44 | 1023.7 |
| 20260906150012 | 77 | 50 | 2.0 | 5.0 | 0.00 | 0.01 | 0.01 | 44 | 1023.8 |
| 20260906145012 | 77 | 51 | 1.0 | 6.0 | 0.00 | 0.01 | 0.01 | 46 | 1023.7 |
| 20260906144012 | 77 | 70 | 2.0 | 6.0 | 0.00 | 0.01 | 0.01 | 46 | 1023.8 |
| 20260906143012 | 77 | 351 | 1.0 | 5.0 | 0.00 | 0.01 | 0.01 | 46 | 1024.0 |
| 20260906142012 | 77 | 76 | 3.0 | 9.0 | 0.00 | 0.01 | 0.01 | 45 | 1024.1 |
| 20260906141012 | 77 | 70 | 2.0 | 10.0 | 0.00 | 0.01 | 0.01 | 48 | 1024.1 |
| 20260906140012 | 77 | 1 | 1.0 | 6.0 | 0.00 | 0.01 | 0.01 | 49 | 1024.1 |
| 20260906135011 | 76 | 61 | 4.0 | 6.0 | 0.00 | 0.01 | 0.01 | 49 | 1024.1 |
| 20260906134013 | 76 | 22 | 3.0 | 6.0 | 0.00 | 0.01 | 0.01 | 48 | 1024.3 |
| 20260906133013 | 76 | 29 | 2.0 | 3.0 | 0.00 | 0.01 | 0.01 | 48 | 1024.4 |
| 20260906132013 | 76 | 43 | 1.0 | 4.0 | 0.00 | 0.01 | 0.01 | 51 | 1024.6 |
| 20260906131013 | 75 | 31 | 2.0 | 9.0 | 0.00 | 0.01 | 0.01 | 51 | 1024.7 |
| 20260906130013 | 76 | 52 | 1.0 | 7.0 | 0.00 | 0.01 | 0.01 | 52 | 1024.8 |
| 20260906125012 | 76 | 23 | 2.0 | 6.0 | 0.00 | 0.01 | 0.01 | 48 | 1024.9 |
| 20260906124012 | 75 | 39 | 2.0 | 4.0 | 0.00 | 0.01 | 0.01 | 50 | 1025.0 |
| 20260906123012 | 75 | 35 | 1.0 | 4.0 | 0.00 | 0.01 | 0.01 | 51 | 1025.2 |
| 20260906122012 | 75 | 53 | 1.0 | 4.0 | 0.00 | 0.01 | 0.01 | 53 | 1025.2 |
| 20260906121012 | 74 | 99 | 2.0 | 7.0 | 0.00 | 0.01 | 0.01 | 53 | 1025.3 |
| 20260906120012 | 74 | 50 | 1.0 | 6.0 | 0.00 | 0.01 | 0.01 | 53 | 1025.3 |
| 20260906115012 | 74 | 36 | 2.0 | 4.0 | 0.00 | 0.01 | 0.01 | 52 | 1025.2 |
| 20260906114012 | 74 | 10 | 1.0 | 3.0 | 0.00 | 0.01 | 0.01 | 55 | 1025.4 |
| 20260906113012 | 74 | 55 | 2.0 | 5.0 | 0.00 | 0.01 | 0.01 | 53 | 1025.5 |
| 20260906112013 | 73 | 33 | 2.0 | 6.0 | 0.00 | 0.01 | 0.01 | 56 | 1025.6 |
| 20260906111012 | 73 | 150 | 2.0 | 4.0 | 0.00 | 0.01 | 0.01 | 58 | 1025.6 |
| 20260906110012 | 72 | 42 | 2.0 | 6.0 | 0.00 | 0.01 | 0.01 | 59 | 1025.6 |
| 20260906105012 | 72 | 1 | 1.0 | 6.0 | 0.00 | 0.01 | 0.01 | 58 | 1025.7 |
| 20260906104012 | 72 | 37 | 2.0 | 4.0 | 0.00 | 0.01 | 0.01 | 59 | 1025.9 |
| 20260906103012 | 71 | 2 | 1.0 | 4.0 | 0.00 | 0.01 | 0.01 | 61 | 1026.0 |
| 20260906102012 | 71 | 88 | 2.0 | 5.0 | 0.00 | 0.01 | 0.01 | 60 | 1026.0 |
| 20260906101012 | 70 | 25 | 1.0 | 4.0 | 0.00 | 0.01 | 0.01 | 62 | 1026.1 |
| 20260906100012 | 69 | 33 | 1.0 | 5.0 | 0.00 | 0.01 | 0.01 | 60 | 1026.4 |
| 20260906095011 | 69 | 153 | 2.0 | 4.0 | 0.00 | 0.01 | 0.01 | 62 | 1026.3 |
| 20260906094011 | 68 | 76 | 1.0 | 4.0 | 0.00 | 0.01 | 0.01 | 63 | 1026.5 |
| 20260906093011 | 68 | 62 | 2.0 | 4.0 | 0.00 | 0.01 | 0.01 | 63 | 1026.5 |
| 20260906092012 | 67 | 35 | 3.0 | 6.0 | 0.00 | 0.01 | 0.01 | 64 | 1026.6 |
| 20260906091012 | 67 | 52 | 2.0 | 9.0 | 0.00 | 0.01 | 0.01 | 64 | 1026.7 |
| 20260906090012 | 67 | 43 | 1.0 | 7.0 | 0.00 | 0.01 | 0.01 | 66 | 1026.6 |
| 20260906085012 | 66 | 38 | 2.0 | 7.0 | 0.00 | 0.01 | 0.01 | 64 | 1026.7 |
| 20260906084012 | 65 | 54 | 4.0 | 7.0 | 0.00 | 0.01 | 0.01 | 66 | 1026.9 |
| 20260906083012 | 65 | 2 | 2.0 | 7.0 | 0.00 | 0.01 | 0.01 | 68 | 1026.8 |
| 20260906082012 | 64 | 87 | 2.0 | 5.0 | 0.00 | 0.01 | 0.01 | 69 | 1026.9 |
| 20260906081012 | 64 | 14 | 2.0 | 5.0 | 0.00 | 0.01 | 0.01 | 70 | 1027.0 |
| 20260906080012 | 63 | 28 | 2.0 | 7.0 | 0.00 | 0.01 | 0.01 | 71 | 1027.0 |
| 20260906075012 | 62 | 57 | 3.0 | 7.0 | 0.00 | 0.01 | 0.01 | 73 | 1026.9 |
| 20260906074012 | 62 | 34 | 1.0 | 2.0 | 0.00 | 0.01 | 0.01 | 79 | 1026.9 |
| 20260906073012 | 61 | 46 | 1.0 | 3.0 | 0.00 | 0.01 | 0.01 | 80 | 1026.8 |
| 20260906072011 | 60 | 43 | 0.0 | 2.0 | 0.00 | 0.01 | 0.01 | 82 | 1027.0 |
| 20260906071011 | 59 | 43 | 0.0 | 4.0 | 0.00 | 0.01 | 0.01 | 84 | 1026.8 |
| 20260906070011 | 58 | 29 | 1.0 | 3.0 | 0.00 | 0.01 | 0.01 | 85 | 1027.0 |
| 20260906065011 | 57 | 243 | 0.0 | 1.0 | 0.00 | 0.01 | 0.01 | 90 | 1027.0 |
| 20260906064011 | 55 | 177 | 1.0 | 2.0 | 0.01 | 0.01 | 0.01 | 93 | 1027.0 |
| 20260906063013 | 53 | 176 | 0.0 | 1.0 | 0.01 | 0.01 | 0.01 | 92 | 1026.8 |
| 20260906062013 | 53 | 177 | 0.0 | 0.0 | 0.01 | 0.01 | 0.01 | 93 | 1026.8 |
| 20260906061013 | 53 | 177 | 0.0 | 0.0 | 0.01 | 0.01 | 0.01 | 94 | 1026.7 |
| 20260906060013 | 52 | 177 | 0.0 | 0.0 | 0.01 | 0.01 | 0.01 | 95 | 1026.5 |
| 20260906055012 | 51 | 177 | 0.0 | 0.0 | 0.01 | 0.02 | 0.01 | 95 | 1026.4 |
| 20260906054012 | 50 | 177 | 0.0 | 0.0 | 0.00 | 0.01 | 0.00 | 94 | 1026.5 |
| 20260906053012 | 50 | 177 | 0.0 | 0.0 | 0.00 | 0.01 | 0.00 | 94 | 1026.3 |
| 20260906052012 | 50 | 177 | 0.0 | 0.0 | 0.00 | 0.01 | 0.00 | 94 | 1026.5 |
| 20260906051012 | 49 | 177 | 0.0 | 0.0 | 0.00 | 0.01 | 0.00 | 94 | 1026.4 |
| 20260906050012 | 49 | 177 | 0.0 | 0.0 | 0.00 | 0.01 | 0.00 | 94 | 1026.5 |
| 20260906045012 | 49 | 177 | 0.0 | 0.0 | 0.00 | 0.03 | 0.00 | 94 | 1026.4 |
| 20260906044011 | 49 | 177 | 0.0 | 0.0 | 0.00 | 0.03 | 0.00 | 93 | 1026.5 |
| 20260906043011 | 50 | 177 | 0.0 | 0.0 | 0.00 | 0.03 | 0.00 | 93 | 1026.3 |
| 20260906042011 | 50 | 177 | 0.0 | 0.0 | 0.00 | 0.03 | 0.00 | 94 | 1026.4 |
| 20260906041011 | 50 | 177 | 0.0 | 0.0 | 0.00 | 0.03 | 0.00 | 94 | 1026.3 |
| 20260906040013 | 51 | 177 | 0.0 | 0.0 | 0.00 | 0.03 | 0.00 | 93 | 1026.1 |
| 20260906035013 | 51 | 177 | 0.0 | 0.0 | 0.00 | 0.04 | 0.00 | 94 | 1026.0 |
| 20260906034012 | 51 | 177 | 0.0 | 0.0 | 0.00 | 0.04 | 0.00 | 94 | 1026.1 |
| 20260906033012 | 51 | 177 | 0.0 | 0.0 | 0.00 | 0.04 | 0.00 | 94 | 1026.0 |
| 20260906032012 | 51 | 177 | 0.0 | 0.0 | 0.00 | 0.04 | 0.00 | 94 | 1025.9 |
| 20260906031012 | 51 | 177 | 0.0 | 0.0 | 0.00 | 0.04 | 0.00 | 93 | 1025.9 |
| 20260906030012 | 51 | 177 | 0.0 | 0.0 | 0.00 | 0.04 | 0.00 | 93 | 1025.9 |
| 20260906025012 | 52 | 177 | 0.0 | 0.0 | 0.00 | 0.04 | 0.00 | 93 | 1025.9 |
| 20260906024011 | 52 | 177 | 0.0 | 0.0 | 0.00 | 0.04 | 0.00 | 93 | 1025.8 |
| 20260906023011 | 52 | 177 | 0.0 | 0.0 | 0.00 | 0.04 | 0.00 | 93 | 1025.7 |
| 20260906022011 | 53 | 177 | 0.0 | 0.0 | 0.00 | 0.04 | 0.00 | 93 | 1025.7 |
| 20260906021011 | 53 | 177 | 0.0 | 0.0 | 0.00 | 0.04 | 0.00 | 93 | 1025.6 |
| 20260906020013 | 53 | 177 | 0.0 | 0.0 | 0.00 | 0.04 | 0.00 | 93 | 1025.5 |
| 20260906015013 | 53 | 177 | 0.0 | 0.0 | 0.00 | 0.04 | 0.00 | 93 | 1025.5 |
| 20260906014013 | 54 | 177 | 0.0 | 0.0 | 0.00 | 0.04 | 0.00 | 93 | 1025.5 |
| 20260906013013 | 54 | 177 | 0.0 | 0.0 | 0.00 | 0.04 | 0.00 | 93 | 1025.5 |
| 20260906012012 | 54 | 177 | 0.0 | 0.0 | 0.00 | 0.04 | 0.00 | 93 | 1025.5 |
| 20260906011012 | 54 | 177 | 0.0 | 0.0 | 0.00 | 0.04 | 0.00 | 93 | 1025.5 |
| 20260906010012 | 55 | 177 | 0.0 | 0.0 | 0.00 | 0.04 | 0.00 | 93 | 1025.4 |
| 20260906005012 | 55 | 177 | 0.0 | 0.0 | 0.00 | 0.04 | 0.00 | 93 | 1025.4 |
| 20260906004012 | 56 | 177 | 0.0 | 0.0 | 0.00 | 0.04 | 0.00 | 92 | 1025.5 |
| 20260906003012 | 56 | 177 | 0.0 | 0.0 | 0.00 | 0.04 | 0.00 | 93 | 1025.5 |
| 20260906002013 | 56 | 177 | 0.0 | 0.0 | 0.00 | 0.04 | 0.00 | 92 | 1025.5 |
| 20260906001012 | 57 | 177 | 0.0 | 0.0 | 0.00 | 0.04 | 0.00 | 92 | 1025.5 |
| 20260906000013 | 57 | 177 | 0.0 | 0.0 | 0.00 | 0.04 | 0.00 | 92 | 1025.5 |
| 20260905235012 | 57 | 177 | 0.0 | 0.0 | 0.00 | 0.04 | 0.00 | 93 | 1025.4 |
| 20260905234012 | 57 | 177 | 0.0 | 0.0 | 0.00 | 0.04 | 0.00 | 92 | 1025.3 |
| 20260905233012 | 57 | 177 | 0.0 | 0.0 | 0.00 | 0.04 | 0.00 | 92 | 1025.3 |
| 20260905232012 | 58 | 177 | 0.0 | 0.0 | 0.00 | 0.04 | 0.00 | 92 | 1025.2 |
| 20260905231012 | 58 | 177 | 0.0 | 0.0 | 0.00 | 0.04 | 0.00 | 91 | 1025.4 |
| 20260905230012 | 58 | 177 | 0.0 | 0.0 | 0.00 | 0.04 | 0.00 | 91 | 1025.4 |
| 20260905225012 | 58 | 177 | 0.0 | 1.0 | 0.00 | 0.04 | 0.00 | 91 | 1025.3 |
| 20260905224012 | 58 | 177 | 0.0 | 0.0 | 0.00 | 0.04 | 0.00 | 90 | 1025.2 |
| 20260905223012 | 59 | 177 | 0.0 | 0.0 | 0.00 | 0.04 | 0.00 | 90 | 1025.2 |
| 20260905222011 | 59 | 177 | 0.0 | 0.0 | 0.00 | 0.04 | 0.00 | 90 | 1025.2 |
| 20260905221011 | 59 | 177 | 0.0 | 2.0 | 0.00 | 0.04 | 0.00 | 90 | 1025.0 |
| 20260905220013 | 60 | 177 | 0.0 | 0.0 | 0.00 | 0.04 | 0.00 | 89 | 1024.9 |
| 20260905215012 | 60 | 177 | 0.0 | 0.0 | 0.00 | 0.04 | 0.04 | 89 | 1024.9 |
| 20260905214012 | 60 | 177 | 0.0 | 0.0 | 0.00 | 0.04 | 0.04 | 89 | 1024.8 |
| 20260905213012 | 60 | 177 | 0.0 | 0.0 | 0.00 | 0.04 | 0.04 | 88 | 1024.7 |
| 20260905212012 | 61 | 177 | 0.0 | 0.0 | 0.00 | 0.04 | 0.04 | 88 | 1024.7 |
| 20260905211012 | 61 | 177 | 0.0 | 0.0 | 0.00 | 0.04 | 0.04 | 88 | 1024.6 |
| 20260905210012 | 62 | 177 | 0.0 | 0.0 | 0.00 | 0.04 | 0.04 | 88 | 1024.6 |